Home   Weather   Heidelberg   Past weeks

Flag for Germany Past Weather in Heidelberg, Baden-Württemberg, Germany — Yesterday and Last 2 Weeks

Now
70 °F

Passing clouds.


Feels Like: 70 °F
Forecast: 54 / 74 °F
Wind: 7 mph from South

Location: Mannheim City

Current Time: Sep 28, 2016 at 2:06:24 PM

Latest Report: Sep 28, 2016 at 1:20 PM


Visibility: N/A

Pressure: 30.36 "Hg

Humidity: 50%

Dew Point: 50 °F

Location of HeidelbergLocation

Past Weather in Heidelberg — Graph

°F

Heidelberg Temperature Yesterday

Maximum temperature yesterday: 70 °F (at 5:20 PM)
Minimum temperature yesterday: 57 °F (at 6:20 AM)
Average temperature yesterday: 63 °F

High & Low Weather Summary for the Past Weeks

 TemperatureHumidityPressure
High91 °F (Sep 13, 4:50 PM)100% (Sep 14, 7:20 AM)30.39 "Hg (Sep 14, 7:20 AM)
Low45 °F (Sep 22, 5:50 AM)24% (Sep 14, 4:50 PM)29.80 "Hg (Sep 15, 5:50 AM)
Average66 °F68%30.08 "Hg
* Reported Sep 13 12:20 PM — Sep 28 12:20 PM, Heidelberg, Weather by CustomWeather, © 2016

Note: Actual official high and low records may vary slightly from our data, if they occured in-between our weather recording intervals... More about our weather records

Advertising

Heidelberg Weather History for the Previous 24 Hours

Scroll right to see more
 ConditionsComfort  
Time TempWeatherWind HumidityBarometerVisibility
12:20 PM
Wed, Sep 28
68 °FPassing clouds.7 mph60%30.36 "HgN/A
11:50 AM66 °FPassing clouds.6 mph64%30.39 "HgN/A
11:20 AM64 °FSunny.8 mph68%30.39 "Hg10 mi
10:50 AM63 °FPassing clouds.6 mph77%30.39 "HgN/A
10:20 AM61 °FPassing clouds.6 mph94%30.39 "HgN/A
9:50 AM57 °FPassing clouds.6 mph100%30.39 "HgN/A
9:20 AM55 °FPassing clouds.5 mph100%30.36 "HgN/A
8:50 AM54 °FPassing clouds.6 mph100%30.36 "HgN/A
8:20 AM54 °FPassing clouds.6 mph100%30.36 "HgN/A
7:50 AM54 °FPartly sunny.7 mph100%30.36 "Hg4 mi
7:20 AM54 °FClear.3 mph100%30.36 "Hg10 mi
6:50 AM54 °FClear.3 mph100%30.36 "Hg10 mi
6:20 AM54 °FClear.3 mph100%30.36 "Hg10 mi
5:50 AM54 °FClear.2 mph100%30.36 "Hg10 mi
9:20 PM
Tue, Sep 27
59 °FClear.2 mph100%30.33 "Hg10 mi
8:50 PM59 °FClear.1 mph100%30.33 "Hg10 mi
7:50 PM63 °FClear.1 mph88%30.33 "Hg10 mi
7:20 PM63 °FClear.2 mph83%30.33 "Hg10 mi
6:50 PM68 °FSunny.1 mph64%30.33 "Hg10 mi
6:20 PM70 °FMild.1 mph60%30.30 "HgN/A
5:50 PM70 °FSunny.1 mph60%30.30 "Hg10 mi
5:20 PM70 °FSunny.3 mph64%30.30 "Hg10 mi
4:50 PM68 °FSunny.3 mph64%30.30 "Hg10 mi
4:20 PM68 °FPassing clouds.5 mph69%30.30 "HgN/A
3:50 PM68 °FSunny.5 mph73%30.30 "Hg10 mi
3:20 PM66 °FPartly sunny.3 mph78%30.33 "HgN/A
2:50 PM66 °FBroken clouds.5 mph83%30.33 "HgN/A
2:20 PM66 °FBroken clouds.5 mph83%30.33 "HgN/A
Weather by CustomWeather, © 2016

See weather overviewHow to use our weather pages